E24QND-2 Weather Reports


time (UTC)temp
F
wind
direction
speed
knots
gust
knots
rain 1hr
in
rain 24hr
in
rain mn
in
humidity
%
barometer
mb
20260509145825 87 0 0.0 0.0 0.00 0.00 0.00 1
20260509143801 86 0 0.0 0.0 0.00 0.00 0.00 1
20260509141736 87 0 0.0 0.0 0.00 0.00 0.00 1
20260509135711 88 0 0.0 0.0 0.00 0.00 0.00 1
20260509133647 88 0 0.0 0.0 0.00 0.00 0.00 1
20260509131622 89 0 0.0 0.0 0.00 0.00 0.00 1
20260509125558 89 0 0.0 0.0 0.00 0.00 0.00 1
20260509123533 88 0 0.0 0.0 0.00 0.00 0.00 1
20260509121509 89 0 0.0 0.0 0.00 0.00 0.00 1
20260509115444 90 0 0.0 0.0 0.00 0.00 0.00 1
20260509113419 91 0 0.0 0.0 0.00 0.00 0.00 1
20260509111355 93 0 0.0 0.0 0.00 0.00 0.00 1
20260509105330 96 0 0.0 0.0 0.00 0.00 0.00 1
20260509103306 95 0 0.0 0.0 0.00 0.00 0.00 1
20260509101241 96 0 0.0 0.0 0.00 0.00 0.00 1
20260509095217 98 0 0.0 0.0 0.00 0.00 0.00 1
20260509093152 96 0 0.0 0.0 0.00 0.00 0.00 1
20260509091128 98 0 0.0 0.0 0.00 0.00 0.00 1
20260509085103 99 0 0.0 0.0 0.00 0.00 0.00 1
20260509083039 97 0 0.0 0.0 0.00 0.00 0.00 1
20260509081014 98 0 0.0 0.0 0.00 0.00 0.00 1
20260509074950 98 0 0.0 0.0 0.00 0.00 0.00 1
20260509072925 98 0 0.0 0.0 0.00 0.00 0.00 1
20260509070900 98 0 0.0 0.0 0.00 0.00 0.00 1
20260509064836 94 0 0.0 0.0 0.00 0.00 0.00 1
20260509062811 98 0 0.0 0.0 0.00 0.00 0.00 1
20260509060747 96 0 0.0 0.0 0.00 0.00 0.00 1
20260509054722 93 0 0.0 0.0 0.00 0.00 0.00 1
20260509052658 93 0 0.0 0.0 0.00 0.00 0.00 1
20260509050633 96 0 0.0 0.0 0.00 0.00 0.00 1
20260509044608 94 0 0.0 0.0 0.00 0.00 0.00 1
20260509042544 95 0 0.0 0.0 0.00 0.00 0.00 1
20260509040519 96 0 0.0 0.0 0.00 0.00 0.00 1
20260509034454 94 0 0.0 0.0 0.00 0.00 0.00 1
20260509032430 92 0 0.0 0.0 0.00 0.00 0.00 1
20260509030405 91 0 0.0 0.0 0.00 0.00 0.00 6
20260509024341 90 0 0.0 0.0 0.00 0.00 0.00 17
20260509022316 89 0 0.0 0.0 0.00 0.00 0.00 40
20260509020252 88 0 0.0 0.0 0.00 0.00 0.00 54
20260509014227 87 0 0.0 0.0 0.00 0.00 0.00 93
20260509012203 86 0 0.0 0.0 0.00 0.00 0.00 99
20260509010138 83 0 0.0 0.0 0.00 0.00 0.00 99
20260509004114 81 0 0.0 0.0 0.00 0.00 0.00 99
20260509002049 81 0 0.0 0.0 0.00 0.00 0.00 99
20260509000025 80 0 0.0 0.0 0.00 0.00 0.00 1
20260508234000 79 0 0.0 0.0 0.00 0.00 0.00 1
20260508231935 79 0 0.0 0.0 0.00 0.00 0.00 1
20260508225911 79 0 0.0 0.0 0.00 0.00 0.00 1
20260508223846 78 0 0.0 0.0 0.00 0.00 0.00 1
20260508221822 78 0 0.0 0.0 0.00 0.00 0.00 1
20260508215757 78 0 0.0 0.0 0.00 0.00 0.00 1
20260508213732 78 0 0.0 0.0 0.00 0.00 0.00 1
20260508211708 78 0 0.0 0.0 0.00 0.00 0.00 1
20260508205643 79 0 0.0 0.0 0.00 0.00 0.00 1
20260508203619 79 0 0.0 0.0 0.00 0.00 0.00 1
20260508201554 78 0 0.0 0.0 0.00 0.00 0.00 1
20260508195530 79 0 0.0 0.0 0.00 0.00 0.00 1
20260508193505 79 0 0.0 0.0 0.00 0.00 0.00 1
20260508191441 79 0 0.0 0.0 0.00 0.00 0.00 1
20260508185416 79 0 0.0 0.0 0.00 0.00 0.00 1
20260508183352 79 0 0.0 0.0 0.00 0.00 0.00 1
20260508181327 80 0 0.0 0.0 0.00 0.00 0.00 1
20260508175305 80 0 0.0 0.0 0.00 0.00 0.00 1
20260508173238 80 0 0.0 0.0 0.00 0.00 0.00 1
20260508171213 80 0 0.0 0.0 0.00 0.00 0.00 1
20260508165149 80 0 0.0 0.0 0.00 0.00 0.00 1
20260508163124 80 0 0.0 0.0 0.00 0.00 0.00 99
20260508161100 80 0 0.0 0.0 0.00 0.00 0.00 99
20260508155035 80 0 0.0 0.0 0.00 0.00 0.00 99
20260508153011 80 0 0.0 0.0 0.00 0.00 0.00 99
20260508150946 81 0 0.0 0.0 0.00 0.00 0.00 99